Regional Weather Roundup
Issued by NWS

Home | Current Version | Previous Version | Graphics & Text | Print | Product List | Glossary On
Versions: 1 2 3 4 5 6 7 8 9 10 11 12 13 14 15 16 17 18 19 20 21 22 23 24 25 26 27
000
ASUS45 KBOU 160806
RWRCO

WEATHER ROUNDUP FOR COLORADO
NATIONAL WEATHER SERVICE DENVER/BOULDER CO
200 AM MDT WED APR 16 2014

NOTE: "FAIR" INDICATES FEW OR NO CLOUDS BELOW 12000 FEET WITH NO
SIGNIFICANT WEATHER AND/OR OBSTRUCTIONS TO VISIBILITY.

COZ001>005-013-030-031-160900-
...NORTHWEST COLORADO...

CITY           SKY/WX    TMP DP  RH WIND       PRES   REMARKS
CRAIG          CLOUDY    43  23  45 NW16      29.87R
HAYDEN         CLOUDY    41  18  38 NW20G26   29.89R
MEEKER         CLOUDY    43  24  47 NW9       29.85R
MOUNT WERNER   CLOUDY    28  14  54 W29G45    29.87S WCI  13
STEAMBOAT SPGS CLOUDY    41  10  28 W13G31    29.85R
WALDEN         CLOUDY    30  21  69 SW8       29.83F WCI  23
$$

COZ006>008-011-160900-
...WEST CENTRAL VALLEYS...

CITY           SKY/WX    TMP DP  RH WIND       PRES   REMARKS
GRAND JUNCTION PTCLDY    39  28  64 CALM      29.81R
MONTROSE       MOCLDY    47  21  35 SE5       29.84F
EAGLE          MOCLDY    37  25  60 NE5       29.83R
RIFLE          CLOUDY    46  24  42 W9        29.81R
DELTA          CLOUDY    47  24  41 NE9       29.82S
NUCLA            N/A     41  14  33 E12       29.89S
$$

COZ017>023-064>068-160900-
...SOUTHWEST COLORADO...

CITY           SKY/WX    TMP DP  RH WIND       PRES   REMARKS
DURANGO        MOCLDY    31   2  29 CALM      29.91F
CORTEZ         CLEAR     31  17  56 CALM      29.90S
PAGOSA SPRINGS MOCLDY    29   6  36 CALM      29.95F
TELLURIDE      CLOUDY    37  10  32 CALM      29.97F
WOLF CREEK PAS CLEAR     25   0  33 SW23G31   30.03F WCI  10
$$

COZ009-010-012-014-032>034-037-058>063-160900-
...CENTRAL COLORADO...

CITY           SKY/WX    TMP DP  RH WIND       PRES   REMARKS
ASPEN          CLOUDY    47  10  22 W8        29.84S
BUENA VISTA    PTCLDY    41   8  25 W5        29.84F
COPPER MTN     SNOW      30  12  47 W33G51    29.91F VSB 1/4 WCI  14
BERTHOUD PASS  LGT SNOW  19  10  68 W46G70    29.83R WCI  -3
COTTONWOOD PAS PTCLDY    39   1  20 W20G40    29.86F
GUNNISON       PTCLDY    28  16  59 CALM      29.92F
KREMMLING      CLOUDY    37  28  70 N18G30    29.85R
LEADVILLE      CLOUDY    34  11  38 W18G36    29.88F WCI  23
MONARCH PASS   CLEAR     23   5  46 W28G35    30.04F WCI   6
SALIDA         PTCLDY    45   5  19 SW9G16    29.91F
SUNLIGHT       CLOUDY    32  18  55 CALM      29.93R
WILKERSON PASS CLEAR     28   9  43 SW12G18   29.90F WCI  18
$$

COZ069>075-160900-
...SAN LUIS VALLEY/SANGRE DE CRISTO MOUNTAINS...

CITY           SKY/WX    TMP DP  RH WIND       PRES   REMARKS
ALAMOSA        PTCLDY    36   8  31 S12       29.90F
LA VETA PASS   CLEAR     32   1  27 SW16G31   29.90F WCI  21
SAGUACHE       CLEAR     28   7  40 N9        29.90F WCI  20
$$

COZ035-036-038>040-160900-
...NORTHERN COLORADO FRONT RANGE...

CITY           SKY/WX    TMP DP  RH WIND       PRES   REMARKS
DENVER INTL AP PTCLDY    49  16  26 W3        29.68S
DMNS CITY PARK   N/A     52  14  22 N1G10     29.67S
AURORA         PTCLDY    46  18  31 S9        29.68F
FRONT RANGE AP NOT AVBL
ERIE MUNI ARPT PTCLDY    52  19  26 W7        29.68R
BOULDER MUN AP PTCLDY    55  19  24 W17G23    29.67R
CENTENNIAL     PTCLDY    44  16  32 S3        29.69S
BROOMFIELD     PTCLDY    54  19  26 W10G29    29.70R
FORT COLLINS   PTCLDY    46  30  53 N28G33    29.72R
LONGMONT       PTCLDY    58  20  23 W14G30    29.70R
$$

COZ041-046-047-076>085-087-088-160900-
...PIKES PEAK/PALMER DIVIDE AND SOUTHERN FOOTHILLS...

CITY           SKY/WX    TMP DP  RH WIND       PRES   REMARKS
COLO. SPRINGS  MOCLDY    47  11  23 SE9       29.74F
A. F. ACADEMY  PTCLDY    52   9  17 N8        29.72F
ELLICOTT       NOT AVBL
FALCON         PTCLDY    43  11  27 W7        29.77F
FORT CARSON    PTCLDY    55  10  16 SW14G23   29.71F
LIMON          PTCLDY    33  24  69 NW7       29.70S WCI  27
MONUMENT HILL  PTCLDY    39  14  35 SW8       29.74F
TRINIDAD       PTCLDY    43  14  31 N6        29.77S
$$

COZ042>045-048>051-090-091-160900-
...NORTHEAST COLORADO...

CITY           SKY/WX    TMP DP  RH WIND       PRES   REMARKS
GREELEY ARPT   CLEAR     45  30  57 NW32G41   29.69S
AKRON          PTCLDY    46  26  45 NW15      29.68R
BURLINGTON     CLOUDY    41  27  57 W13       29.63F
WRAY           CLOUDY    41  32  69 W9        29.61S
STERLING       PTCLDY    52  36  54 NW21G26   29.66R
HOLYOKE        CLOUDY    41  32  70 W13       29.62R
FORT MORGAN    PTCLDY    44  31  61 NW24G30   29.68S
$$

COZ086-089-092>099-160900-
...SOUTHEAST COLORADO...

CITY           SKY/WX    TMP DP  RH WIND       PRES   REMARKS
PUEBLO         CLEAR     46  19  34 VRB3      29.69F
LA JUNTA       CLEAR     47  26  44 SW14      29.68S
LAMAR          PTCLDY    47  25  42 W13       29.64S
SPRINGFIELD    NOT AVBL
$$



USA.gov is the U.S. government's official web portal to all federal, state and local government web resources and services.